User: anonymous   Login
Location: Carnetin
(48.9010°N, 2.7059°E)
Time: 16:18:58
(UTC+00:00)
Language:

Resurs 01 Rocket - Orbit

View from above orbital plane
View from above orbital plane
View from above satellite
View from above satellite

Ground track
Ground track

The orbit data is extracted from the following two-line orbital elements,

1 23343U 94074B   22022.89037209  .00000097  00000-0  21020-4 0  9990
2 23343  97.9164  78.7984 0008171  70.9367 102.4834 14.76939113464678
Epoch (UTC): 22 January 2022 21:22:08
Eccentricity: 0.0008171
inclination: 97.9164°
perigee height: 633 km
apogee height: 645 km
right ascension of ascending node: 78.7984°
argument of perigee: 70.9367°
revolutions per day: 14.76939113
mean anomaly at epoch: 102.4834°
orbit number at epoch: 46467

The dashed part of the orbit path shows where the satellite is in the earth's shadow,  

DLR